Погода в Есуковском

Россия / Тульская область     54°48′35″N   37°49′10″E
темп.,
°C
ветер,
м/с
пор.,
м/с
влажн.,
%
обл.,
%
осадки,
мм/ч
давл.,
гПа
погр.,
м
20 мая, пт
пт2000:00+5сз3594100 0.0 1015104
03:00+3с35975 0.0 101695
06:00+4с37895 0.0 1017247
09:00+8ссв46595 0.0 1018964
12:00+10ссв45465 0.0 10181689
15:00+11с344122 0.0 10172021
18:00+11св3352100 0.0 1016929
21:00+6вюв1160100 0.0 101710
21 мая, сб
сб2100:00+4юв1160100 0.0 101610
03:00+3вюв1164100 0.0 101610
06:00+4вюв2472100 0.0 1014113
09:00+9вюв3358100 0.0 1013658
12:00+12вюв334949 0.0 10121679
15:00+13вюв324677 0.0 10102002
18:00+12вюв335894 0.0 10081090
21:00+7вюв3471100 0.0 100865
22 мая, вс
вс2200:00+6вюв3771100 0.0 1006121
03:00+6в4973100 0.0 1004238
06:00+5всв51274100 0.0 1003373
09:00+8всв71064100 0.0 1002839
12:00+10всв675390 0.1 10021791
15:00+11св674899 0.1 10031903
18:00+11ссв57525 0.0 10031495
21:00+6с366782 0.0 1005103
23 мая, пн
пн2300:00+3ссз34745 0.0 100664
03:00+1сз36745 0.0 1007106
06:00+3сз310700 0.0 1007260
09:00+9ссз59484 0.0 10071512
12:00+12сз56415 0.0 10062073
15:00+13сз674081 0.0 10062285
18:00+12сз585041 0.0 10061097
21:00+6зсз3463100 0.0 100754
24 мая, вт
вт2400:00+5зсз3764100 0.0 1008127
03:00+4сз31070100 0.0 1009250
06:00+5зсз41069100 0.0 1010356
09:00+9сз7104296 0.0 10101085
12:00+12ссз7103588 0.0 10101625
15:00+14ссз7933100 0.0 10101993
18:00+13с48456 0.0 1011849
21:00+7св22680 0.0 101412